Weather History for Cape Girardeau, MO

Change the Weather History Date:

Wednesday, January 2, 2013

  Actual Average Record
Temperature  
Mean Temperature 24 °F 33 °F  
Max Temperature 30 °F 42 °F 69 °F (1966)
Min Temperature 18 °F 24 °F -3 °F (2001)
Degree Days  
Heating Degree Days 41 32  
Month to date heating degree days 77 64  
Since 1 July heating degree days 1701 1815  
Cooling Degree Days 0 0  
Month to date cooling degree days 0 0  
Year to date cooling degree days 0 0  
Moisture  
Dew Point 15 °F    
Average Humidity 67    
Maximum Humidity 88    
Minimum Humidity 46    
Precipitation  
Precipitation 0.00 in 0.12 in 1.72 in (1999)
Month to date precipitation 0.00 0.24  
Year to date precipitation 0.00 0.24  
Sea Level Pressure  
Sea Level Pressure 30.28 in    
Wind  
Wind Speed 1 mph (North)    
Max Wind Speed 8 mph    
Max Gust Speed 10 mph    
Visibility 10 miles    
Events      
T = Trace of Precipitation, MM = Missing Value Source: NWS Daily Summary

Daily Weather History Graph

Daily Weather History Graph

Search for Another Location

Airport:

Trip Planner

Search our weather history database for the weather conditions in past years. The results will help you decide how hot, cold, wet, or windy it might be!

Date:

Astronomy

Jan. 02, 2013 Rise Set
Actual Time 7:12 AM CST 4:52 PM CST
Civil Twilight 6:43 AM CST 5:21 PM CST
Nautical Twilight 6:10 AM CST 5:54 PM CST
Astronomical Twilight 5:39 AM CST 6:25 PM CST
Moon 10:17 PM CST (1/2) 10:01 AM CST (1/2)
Length of Visible Light 10h 38m
Length of Day
9h 40m
Waning Gibbous, 75% of the Moon is Illuminated
Jan 2
Waning Gibbous
Jan 4
Last Quarter
Jan 11
New
Jan 18
First Quarter
Jan 26
Full

Hourly Weather History & Observations

Time (CST) Temp. Windchill Dew Point Humidity Pressure Visibility Wind Dir Wind Speed Gust Speed Precip Events Conditions
12:53 AM 23.0 °F 15.8 °F 15.1 °F 72% 30.27 in 10.0 mi North 5.8 mph - N/A   Clear
1:53 AM 21.0 °F 14.6 °F 14.0 °F 74% 30.28 in 10.0 mi NNW 4.6 mph - N/A   Clear
2:53 AM 19.9 °F - 15.1 °F 81% 30.29 in 10.0 mi Calm Calm - N/A   Clear
3:53 AM 19.0 °F 12.3 °F 14.0 °F 81% 30.28 in 9.0 mi NNW 4.6 mph - N/A   Clear
4:53 AM 19.0 °F 13.9 °F 14.0 °F 81% 30.28 in 9.0 mi NNW 3.5 mph - N/A   Clear
5:53 AM 19.0 °F 12.3 °F 12.9 °F 77% 30.29 in 10.0 mi NNW 4.6 mph - N/A   Clear
6:53 AM 18.0 °F - 12.9 °F 81% 30.30 in 9.0 mi Calm Calm - N/A   Clear
7:53 AM 19.0 °F - 12.9 °F 77% 30.32 in 8.0 mi Calm Calm - N/A   Clear
8:53 AM 21.2 °F 14.9 °F 12.2 °F 68% 30.31 in 10.0 mi North 4.6 mph - N/A   Clear
9:53 AM 25.0 °F 20.7 °F 14.0 °F 63% 30.32 in 9.0 mi ENE 3.5 mph - N/A   Clear
10:53 AM 27.0 °F - 12.0 °F 53% 30.30 in 10.0 mi Calm Calm - N/A   Clear
11:53 AM 27.0 °F - 12.9 °F 56% 30.29 in 10.0 mi Calm Calm - N/A   Clear
12:53 PM 28.0 °F - 12.0 °F 51% 30.26 in 10.0 mi Calm Calm - N/A   Clear
1:53 PM 28.9 °F - 10.9 °F 47% 30.24 in 10.0 mi Calm Calm - N/A   Clear
2:53 PM 30.0 °F - 15.1 °F 54% 30.24 in 10.0 mi Calm Calm - N/A   Clear
3:53 PM 28.9 °F - 19.0 °F 67% 30.26 in 10.0 mi Calm Calm - N/A   Clear
4:53 PM 28.0 °F - 19.0 °F 69% 30.26 in 10.0 mi Calm Calm - N/A   Clear
5:53 PM 27.0 °F 23.0 °F 19.9 °F 75% 30.26 in 10.0 mi South 3.5 mph - N/A   Clear
6:53 PM 26.1 °F - 18.0 °F 71% 30.27 in 10.0 mi Calm Calm - N/A   Clear
7:53 PM 25.0 °F - 19.9 °F 81% 30.28 in 9.0 mi Calm Calm - N/A   Clear
8:53 PM 26.1 °F - 18.0 °F 71% 30.28 in 10.0 mi Calm Calm - N/A   Clear
9:53 PM 24.1 °F - 19.9 °F 84% 30.29 in 8.0 mi Calm Calm - N/A   Clear
10:53 PM 23.0 °F - 19.0 °F 85% 30.29 in 8.0 mi Calm Calm - N/A   Clear
11:53 PM 21.9 °F - 18.0 °F 85% 30.29 in 10.0 mi Calm Calm - N/A   Clear